Weather reports worldwide

Advertisment
Aboyne, United Kingdom (3080): temperature & dewpoint: 30.06.2020 06:00:00 - 06.07.2020 06:00:00 (BST)Aboyne, United Kingdom (3080): temperature -20cm & temperature -100cm: 30.06.2020 06:00:00 - 06.07.2020 06:00:00 (BST)Aboyne, United Kingdom (3080): wind speed & gusts: 30.06.2020 06:00:00 - 06.07.2020 06:00:00 (BST)Aboyne, United Kingdom (3080): wind direction: 30.06.2020 06:00:00 - 06.07.2020 06:00:00 (BST)Aboyne, United Kingdom (3080): reduced air pressure: 30.06.2020 06:00:00 - 06.07.2020 06:00:00 (BST)Aboyne, United Kingdom (3080): visibility: 30.06.2020 06:00:00 - 06.07.2020 06:00:00 (BST)Aboyne, United Kingdom (3080): precipitation: 30.06.2020 06:00:00 - 06.07.2020 06:00:00 (BST)
Date & Time tt [°C] td [°C] tt -20cm [°C] tt -100cm [°C] ff [km/h] ff [kn] fx [km/h] fx [kn] dd ppp [hPa] vv [km] rr [mm]
06.07.2020 06:00:00 9,9 7,2 - - 21 11 - - WNW 1007,7 50 0,0
06.07.2020 05:00:00 9,9 7,0 - - 15 8 - - WNW 1006,5 45 0,0
06.07.2020 04:00:00 9,7 6,3 - - 18 10 - - WNW 1005,3 50 0,0
06.07.2020 03:00:00 10,0 6,7 - - 18 10 - - WNW 1004,1 50 0,0
06.07.2020 02:00:00 9,4 6,1 - - 15 8 - - W 1003,5 50 0,0
06.07.2020 01:00:00 10,4 6,7 - - 15 8 - - W 1002,7 50 0,0
06.07.2020 00:00:00 10,6 7,0 - - 15 8 - - WNW 1001,7 50 0,0
05.07.2020 23:00:00 10,0 6,7 - - 15 8 - - WNW 1000,8 50 0,0
05.07.2020 22:00:00 10,5 7,3 - - 13 7 - - W 999,9 50 0,0
05.07.2020 21:00:00 11,9 6,2 - - 22 12 - - W 998,4 50 0,0
05.07.2020 20:00:00 12,0 7,0 - - 15 8 - - W 997,6 50 0,2
05.07.2020 19:00:00 12,0 5,8 - - 16 9 - - WNW 996,9 45 0,0
05.07.2020 18:00:00 14,4 5,7 - - 24 13 - - W 995,9 40 0,0
05.07.2020 17:00:00 14,5 6,5 - - 26 14 - - W 995,5 50 0,0
05.07.2020 16:00:00 13,9 6,5 - - 28 15 46 25 W 995,6 45 0,0
05.07.2020 15:00:00 15,3 7,0 - - 18 10 - - WSW 995,7 45 0,0
05.07.2020 14:00:00 16,6 7,0 - - 22 12 48 26 W 995,1 35 0,0
05.07.2020 13:00:00 15,1 5,9 - - 35 19 57 31 W 995,2 29 0,0
05.07.2020 12:00:00 15,6 7,1 - - 31 17 55 30 W 994,7 50 0,0
05.07.2020 11:00:00 13,6 7,2 - - 21 11 - - W 994,8 40 0,0
05.07.2020 10:00:00 13,1 8,1 14,0 13,2 15 8 - - W 994,6 45 0,0
05.07.2020 09:00:00 13,0 9,9 - - 9 5 - - W 994,0 50 0,0
05.07.2020 08:00:00 12,2 9,6 - - 13 7 - - WNW 993,5 45 0,0
05.07.2020 07:00:00 10,5 9,5 - - 13 7 - - W 992,5 50 0,0
05.07.2020 06:00:00 9,9 8,5 - - 9 5 - - W 991,2 50 0,0
05.07.2020 05:00:00 10,1 9,4 - - 9 5 - - W 990,2 45 0,0
05.07.2020 04:00:00 10,4 9,9 - - 8 4 - - W 989,3 15 0,6
05.07.2020 03:00:00 10,8 10,6 - - 8 4 - - W 988,8 13 0,0
05.07.2020 02:00:00 10,9 10,5 - - 2 1 - - W 989,2 4,3 1,0
05.07.2020 01:00:00 11,0 10,6 - - 9 5 - - E 990,9 7 2,8
05.07.2020 00:00:00 11,2 10,8 - - 11 6 - - E 992,4 11 5,0
04.07.2020 23:00:00 11,6 10,5 - - 4 2 - - S 995,3 5 3,2
04.07.2020 22:00:00 12,7 10,4 - - 4 2 - - S 996,6 4,0 1,0
04.07.2020 21:00:00 14,3 9,3 - - 11 6 - - S 997,3 50 0,0
04.07.2020 20:00:00 15,2 8,4 - - 13 7 - - SSW 998,1 45 0,0
04.07.2020 19:00:00 16,0 9,3 - - 8 4 - - SW 998,9 45 0,0
04.07.2020 18:00:00 16,3 9,2 - - 13 7 - - W 999,8 50 0,0
04.07.2020 17:00:00 16,2 9,0 - - 18 10 - - WSW 1000,6 45 0,0
04.07.2020 16:00:00 16,7 9,5 - - 16 9 - - WSW 1001,0 45 0,0
04.07.2020 15:00:00 17,2 9,3 - - 18 10 - - W 1001,2 45 0,0
04.07.2020 14:00:00 15,1 8,9 - - 13 7 - - W 1001,5 35 0,0
04.07.2020 13:00:00 14,7 9,0 - - 9 5 - - WNW 1001,7 45 0,0
04.07.2020 12:00:00 14,3 10,3 - - 5 3 - - S 1001,6 28 0,2
04.07.2020 11:00:00 14,6 8,7 - - 9 5 - - SSE 1002,2 40 0,0
04.07.2020 10:00:00 13,1 9,6 13,7 13,2 9 5 - - E 1002,2 45 0,0
04.07.2020 09:00:00 11,8 8,9 - - 2 1 - - E 1002,5 50 0,0
04.07.2020 08:00:00 8,8 7,5 - - 5 3 - - W 1003,0 40 0,0
04.07.2020 07:00:00 7,2 7,1 - - 4 2 - - WSW 1003,4 40 0,0
04.07.2020 06:00:00 4,9 4,7 - - 8 4 - - WNW 1003,8 30 0,0
04.07.2020 05:00:00 4,0 3,7 - - 4 2 - - W 1003,6 15 0,0
04.07.2020 04:00:00 3,9 3,5 - - 2 1 - - N 1003,5 1,5 0,0
04.07.2020 03:00:00 4,7 4,1 - - 2 1 - - ENE 1003,2 2,7 0,0
04.07.2020 02:00:00 6,6 6,0 - - 8 4 - - NW 1003,1 45 0,0
04.07.2020 01:00:00 7,0 6,7 - - 11 6 - - W 1003,2 50 0,0
04.07.2020 00:00:00 6,2 5,4 - - 5 3 - - SW 1003,1 45 0,0
03.07.2020 23:00:00 7,2 6,3 - - 8 4 - - W 1002,7 45 0,0
03.07.2020 22:00:00 9,1 7,4 - - 8 4 - - WSW 1002,1 45 0,0
03.07.2020 21:00:00 12,1 9,0 - - 4 2 - - NW 1001,6 40 0,0
03.07.2020 20:00:00 12,1 9,8 - - 13 7 - - W 1001,1 50 0,0
03.07.2020 19:00:00 11,9 10,2 - - 9 5 - - W 1001,1 50 0,4
03.07.2020 18:00:00 13,0 11,3 - - 8 4 - - WSW 1000,8 27 1,6
03.07.2020 17:00:00 12,8 11,4 - - 0 0 - - N 1000,7 5 1,8
03.07.2020 16:00:00 13,0 11,6 - - 2 1 - - ESE 1000,5 10 2,0
03.07.2020 15:00:00 12,8 10,7 - - 4 2 - - NE 1000,9 22 0,2
03.07.2020 14:00:00 12,6 10,6 - - 9 5 - - ENE 1001,0 50 0,0
03.07.2020 13:00:00 11,6 10,3 - - 13 7 - - E 1001,9 50 0,0
03.07.2020 12:00:00 10,7 8,9 - - 9 5 - - ESE 1002,6 50 0,0
03.07.2020 11:00:00 10,2 8,6 - - 9 5 - - ESE 1003,1 45 0,0
03.07.2020 10:00:00 9,7 9,1 14,4 13,4 9 5 - - E 1003,6 45 0,2
03.07.2020 09:00:00 8,5 7,8 - - 11 6 - - E 1004,3 30 0,2
03.07.2020 08:00:00 8,3 7,6 - - 8 4 - - E 1005,0 21 0,4
03.07.2020 07:00:00 7,9 7,3 - - 2 1 - - WSW 1005,8 15 0,4
03.07.2020 06:00:00 7,5 6,9 - - 4 2 - - W 1006,5 23 0,6
03.07.2020 05:00:00 7,7 6,5 - - 4 2 - - WNW 1006,9 18 0,4
03.07.2020 04:00:00 8,3 7,1 - - 9 5 - - W 1007,3 45 0,0
03.07.2020 03:00:00 8,5 8,3 - - 4 2 - - W 1007,4 30 0,0
03.07.2020 02:00:00 8,2 7,8 - - 4 2 - - W 1007,4 23 0,0
03.07.2020 01:00:00 8,6 8,4 - - 5 3 - - E 1008,1 3,2 0,0
03.07.2020 00:00:00 8,7 8,2 - - 2 1 - - NW 1008,7 9 0,0
02.07.2020 23:00:00 9,7 9,1 - - 2 1 - - ENE 1009,2 3,3 0,0
02.07.2020 22:00:00 10,6 9,8 - - 4 2 - - ENE 1009,4 16 1,0
02.07.2020 21:00:00 11,4 9,6 - - 9 5 - - SW 1009,7 8 0,6
02.07.2020 20:00:00 12,3 10,3 - - 8 4 - - S 1009,6 35 0,4
02.07.2020 19:00:00 12,6 10,8 - - 9 5 - - S 1009,6 25 1,6
02.07.2020 18:00:00 13,5 10,6 - - 8 4 - - E 1009,7 35 0,4
02.07.2020 17:00:00 12,4 10,4 - - 11 6 - - E 1010,1 16 1,4
02.07.2020 16:00:00 14,7 7,5 - - 13 7 - - E 1009,8 45 0,0
02.07.2020 15:00:00 13,7 7,9 - - 11 6 - - E 1010,2 40 0,0
02.07.2020 14:00:00 14,4 7,2 - - 11 6 - - E 1010,3 40 0,0
02.07.2020 13:00:00 14,3 5,8 - - 5 3 - - SW 1010,4 40 0,0
02.07.2020 12:00:00 13,8 6,8 - - 5 3 - - N 1010,5 29 0,0
02.07.2020 11:00:00 11,6 5,7 - - 2 1 - - NNW 1010,6 50 0,0
02.07.2020 10:00:00 11,4 6,0 14,2 13,5 4 2 - - W 1010,4 45 0,0
02.07.2020 09:00:00 11,0 5,5 - - 5 3 - - N 1010,4 40 0,0
02.07.2020 08:00:00 10,2 6,6 - - 4 2 - - WNW 1010,2 40 0,0
02.07.2020 07:00:00 6,7 5,2 - - 8 4 - - W 1010,2 40 0,0
02.07.2020 06:00:00 5,1 4,5 - - 9 5 - - NW 1009,9 45 0,0
02.07.2020 05:00:00 4,5 4,2 - - 9 5 - - WNW 1009,8 45 0,0
02.07.2020 04:00:00 4,5 4,2 - - 8 4 - - WNW 1009,7 40 0,0
02.07.2020 03:00:00 3,7 3,5 - - 8 4 - - W 1009,8 40 0,0
02.07.2020 02:00:00 2,4 2,2 - - 5 3 - - W 1009,9 3,0 0,0
02.07.2020 01:00:00 2,4 2,0 - - 4 2 - - W 1009,6 22 0,0
02.07.2020 00:00:00 2,3 1,2 - - 4 2 - - WNW 1009,5 22 0,0
01.07.2020 23:00:00 5,3 4,3 - - 5 3 - - WNW 1009,1 35 0,0
01.07.2020 22:00:00 7,4 4,4 - - 4 2 - - NE 1008,3 35 0,0
01.07.2020 21:00:00 11,1 5,8 - - 8 4 - - ENE 1007,5 40 0,0
01.07.2020 20:00:00 11,7 6,1 - - 5 3 - - ENE 1007,0 45 0,0
01.07.2020 19:00:00 12,2 6,0 - - 8 4 - - NE 1006,7 30 0,0
01.07.2020 18:00:00 12,2 6,0 - - 5 3 - - NNE 1006,6 50 0,0
01.07.2020 17:00:00 12,5 6,4 - - 2 1 - - NNE 1006,5 45 0,0
01.07.2020 16:00:00 12,1 6,3 - - 4 2 - - SSE 1006,3 40 0,0
01.07.2020 15:00:00 12,1 7,0 - - 9 5 - - NNW 1006,0 30 0,0
01.07.2020 14:00:00 12,1 6,8 - - 5 3 - - NNE 1005,6 40 0,0
01.07.2020 13:00:00 11,8 7,0 - - 5 3 - - N 1005,4 30 0,0
01.07.2020 12:00:00 11,0 8,0 - - 4 2 - - NNE 1005,2 17 0,0
01.07.2020 11:00:00 10,6 9,5 - - 5 3 - - NNE 1004,7 20 0,0
01.07.2020 10:00:00 10,2 9,1 14,9 13,5 9 5 - - NNE 1004,3 30 0,2
01.07.2020 09:00:00 10,1 9,1 - - 5 3 - - NNE 1004,0 9 0,0
01.07.2020 08:00:00 10,6 9,8 - - 9 5 - - NNE 1003,3 13 0,2
01.07.2020 07:00:00 10,7 10,2 - - 4 2 - - NW 1002,8 2,9 0,2
01.07.2020 06:00:00 10,5 10,1 - - 5 3 - - W 1002,4 11 0,0
01.07.2020 05:00:00 10,3 9,7 - - 4 2 - - WSW 1002,4 21 0,2
01.07.2020 04:00:00 10,3 9,6 - - 5 3 - - WSW 1002,4 28 0,0
01.07.2020 03:00:00 10,5 9,5 - - 4 2 - - NNW 1002,3 30 1,2
01.07.2020 02:00:00 11,6 11,1 - - 4 2 - - WNW 1002,1 3,5 1,8
01.07.2020 01:00:00 11,7 11,1 - - 0 0 - - N 1002,2 13 0,4
01.07.2020 00:00:00 11,9 11,2 - - 2 1 - - ESE 1002,3 6 1,0
30.06.2020 23:00:00 12,3 11,3 - - 0 0 - - N 1002,3 11 0,8
30.06.2020 22:00:00 12,9 10,9 - - 5 3 - - NE 1001,9 12 0,2
30.06.2020 21:00:00 14,4 11,0 - - 5 3 - - E 1001,4 45 0,0
30.06.2020 20:00:00 14,8 11,7 - - 8 4 - - NNE 1001,1 50 0,0
30.06.2020 19:00:00 15,7 10,7 - - 4 2 - - ENE 1000,8 50 0,0
30.06.2020 18:00:00 15,4 11,5 - - 11 6 - - N 1000,7 15 0,0
30.06.2020 17:00:00 16,9 10,3 - - 9 5 - - N 1000,3 45 0,0
30.06.2020 16:00:00 16,5 10,9 - - 13 7 - - N 1000,6 50 0,0
30.06.2020 15:00:00 16,2 10,9 - - 11 6 - - NNW 1000,7 35 0,0
30.06.2020 14:00:00 16,2 10,4 - - 18 10 - - N 1000,3 29 0,0
30.06.2020 13:00:00 15,3 9,6 - - 21 11 - - NW 1000,0 35 0,0
30.06.2020 12:00:00 16,2 10,6 - - 16 9 - - W 999,5 25 0,0
30.06.2020 11:00:00 15,4 10,4 - - 11 6 - - WNW 999,5 45 0,0
30.06.2020 10:00:00 14,6 10,6 14,9 13,5 11 6 - - WNW 999,3 40 0,0
30.06.2020 09:00:00 13,6 10,1 - - 16 9 - - W 999,0 40 0,0
30.06.2020 08:00:00 13,6 10,1 - - 15 8 - - WNW 998,5 50 0,0
30.06.2020 07:00:00 12,8 10,2 - - 13 7 - - W 998,1 50 0,0
30.06.2020 06:00:00 12,5 10,0 - - 13 7 - - WNW 997,7 40 0,0

tt = temperature
td = dewpoint
tt -20cm = temperature -20cm
tt -100cm = temperature -100cm
ff = wind speed
fx = gusts
dd = wind direction
ppp = reduced air pressure
vv = visibility
rr = precipitation

Next stations